• In Romania
  • List of Countries
  • For 7 days
  • Water Temperature
  • Satellite Maps
  • Weather Map
  • Weather Widgets
  • user-avatar
    Login

    Hourly Weather Shibenik

    Today, 21 October, Saturday

    Time Temperature Precipitation Wind Pressure Humidity
    00:00 +12°C° 0 mm 1 mps 745 mmHg 91%
    01:00 +12°C° 0 mm 2 mps 745 mmHg 88%
    02:00 +12°C° 0 mm 2 mps 744 mmHg 88%
    03:00 +12°C° 0 mm 2 mps 744 mmHg 89%
    04:00 +11°C° 0 mm 1 mps 744 mmHg 90%
    05:00 +11°C° 0 mm 1 mps 744 mmHg 89%
    06:00 +11°C° 0 mm 1 mps 744 mmHg 88%
    07:00 +11°C° 0 mm 1 mps 745 mmHg 86%
    08:00 +14°C° 0 mm 1 mps 745 mmHg 76%
    09:00 +16°C° 0 mm 1 mps 745 mmHg 66%
    10:00 +19°C° 0 mm 2 mps 745 mmHg 56%
    11:00 +20°C° 0 mm 2 mps 745 mmHg 52%
    12:00 +21°C° 0 mm 2 mps 744 mmHg 49%
    13:00 +23°C° 0 mm 2 mps 744 mmHg 45%
    14:00 +21°C° 0 mm 2 mps 744 mmHg 50%
    15:00 +21°C° 0 mm 1 mps 743 mmHg 56%
    16:00 +21°C° 0 mm 1 mps 743 mmHg 61%
    17:00 +19°C° 0 mm 1 mps 743 mmHg 66%
    18:00 +16°C° 0 mm 1 mps 743 mmHg 72%
    19:00 +15°C° 0 mm 1 mps 743 mmHg 77%
    20:00 +14°C° 0 mm 1 mps 743 mmHg 80%
    21:00 +14°C° 0 mm 1 mps 743 mmHg 83%
    22:00 +13°C° 0 mm 1 mps 743 mmHg 86%
    23:00 +13°C° 0 mm 1 mps 743 mmHg 88%

    Tomorrow, 22 October, Sunday

    Time Temperature Precipitation Wind Pressure Humidity
    00:00 +13°C° 0 mm 1 mps 743 mmHg 89%
    01:00 +12°C° 0 mm 1 mps 743 mmHg 91%
    02:00 +12°C° 0 mm 1 mps 742 mmHg 91%
    03:00 +12°C° 0 mm 1 mps 742 mmHg 92%
    04:00 +12°C° 0 mm 1 mps 742 mmHg 92%
    05:00 +12°C° 0 mm 1 mps 742 mmHg 91%
    06:00 +12°C° 0 mm 1 mps 742 mmHg 91%
    07:00 +12°C° 0 mm 1 mps 741 mmHg 90%
    08:00 +15°C° 0 mm 1 mps 741 mmHg 82%
    09:00 +18°C° 0 mm 1 mps 741 mmHg 74%
    10:00 +20°C° 0 mm 1 mps 741 mmHg 66%
    11:00 +20°C° 0.3 mm 1 mps 741 mmHg 68%
    12:00 +20°C° 0.3 mm 1 mps 740 mmHg 70%
    13:00 +20°C° 0.3 mm 1 mps 740 mmHg 72%
    14:00 +19°C° 1.6 mm 1 mps 739 mmHg 77%
    15:00 +18°C° 1.6 mm 1 mps 739 mmHg 82%
    16:00 +16°C° 1.6 mm 2 mps 738 mmHg 88%
    17:00 +14°C° 1.9 mm 3 mps 738 mmHg 89%
    18:00 +13°C° 1.9 mm 3 mps 738 mmHg 91%
    19:00 +11°C° 1.9 mm 4 mps 739 mmHg 92%
    20:00 +11°C° 1.2 mm 4 mps 738 mmHg 92%
    21:00 +10°C° 1.2 mm 4 mps 738 mmHg 91%
    22:00 +10°C° 1.2 mm 4 mps 738 mmHg 91%
    23:00 +8°C° 2.1 mm 4 mps 738 mmHg 91%

    Day after tomorrow, 23 October, Monday

    Time Temperature Precipitation Wind Pressure Humidity
    00:00 +8°C° 2.1 mm 4 mps 738 mmHg 90%
    01:00 +9°C° 2.1 mm 3 mps 737 mmHg 90%
    02:00 +9°C° 1.2 mm 3 mps 737 mmHg 90%
    03:00 +8°C° 1.2 mm 2 mps 737 mmHg 89%
    04:00 +8°C° 1.2 mm 2 mps 737 mmHg 89%
    05:00 +8°C° 0.2 mm 2 mps 738 mmHg 89%
    06:00 +8°C° 0.2 mm 2 mps 738 mmHg 88%
    07:00 +8°C° 0.2 mm 2 mps 738 mmHg 88%
    08:00 +8°C° 0.3 mm 2 mps 738 mmHg 86%
    09:00 +9°C° 0.3 mm 2 mps 738 mmHg 85%
    10:00 +9°C° 0.3 mm 2 mps 739 mmHg 83%
    11:00 +9°C° 0.4 mm 3 mps 739 mmHg 81%
    12:00 +10°C° 0.4 mm 3 mps 739 mmHg 78%
    13:00 +10°C° 0.4 mm 4 mps 739 mmHg 76%
    14:00 +10°C° 0.6 mm 3 mps 739 mmHg 78%
    15:00 +9°C° 0.6 mm 3 mps 739 mmHg 81%
    16:00 +9°C° 0.6 mm 3 mps 739 mmHg 84%
    17:00 +9°C° 0.7 mm 3 mps 739 mmHg 85%
    18:00 +8°C° 0.7 mm 3 mps 739 mmHg 86%
    19:00 +8°C° 0.7 mm 3 mps 740 mmHg 87%
    20:00 +8°C° 0.8 mm 3 mps 740 mmHg 87%
    21:00 +8°C° 0.8 mm 3 mps 740 mmHg 87%
    22:00 +8°C° 0.8 mm 3 mps 740 mmHg 87%
    23:00 +8°C° 0.5 mm 3 mps 740 mmHg 87%

    24 October, Tuesday

    Time Temperature Precipitation Wind Pressure Humidity
    00:00 +8°C° 0.5 mm 3 mps 740 mmHg 87%
    01:00 +8°C° 0.5 mm 3 mps 741 mmHg 87%
    02:00 +8°C° 0.3 mm 3 mps 741 mmHg 86%
    03:00 +8°C° 0.3 mm 3 mps 741 mmHg 86%
    04:00 +8°C° 0.3 mm 3 mps 741 mmHg 86%
    05:00 +7°C° 0.1 mm 3 mps 741 mmHg 86%
    06:00 +7°C° 0.1 mm 3 mps 741 mmHg 86%
    07:00 +7°C° 0.1 mm 3 mps 741 mmHg 86%
    08:00 +8°C° 0.1 mm 4 mps 741 mmHg 81%
    09:00 +9°C° 0.1 mm 5 mps 742 mmHg 76%
    10:00 +10°C° 0.1 mm 6 mps 742 mmHg 71%
    11:00 +10°C° 0.2 mm 6 mps 742 mmHg 71%
    12:00 +10°C° 0.2 mm 5 mps 742 mmHg 71%
    13:00 +10°C° 0.2 mm 5 mps 742 mmHg 72%
    14:00 +10°C° 0.1 mm 5 mps 742 mmHg 72%
    15:00 +10°C° 0.1 mm 5 mps 743 mmHg 73%
    16:00 +10°C° 0.1 mm 5 mps 743 mmHg 73%
    17:00 +10°C° 0.1 mm 6 mps 743 mmHg 73%
    18:00 +10°C° 0.1 mm 6 mps 744 mmHg 73%
    19:00 +9°C° 0.1 mm 6 mps 745 mmHg 73%
    20:00 +9°C° 0 mm 6 mps 745 mmHg 74%
    21:00 +9°C° 0 mm 6 mps 746 mmHg 75%
    22:00 +8°C° 0 mm 6 mps 746 mmHg 76%
    23:00 +8°C° 0 mm 5 mps 746 mmHg 77%

    25 October, Wednesday

    Time Temperature Precipitation Wind Pressure Humidity
    00:00 +7°C° 0 mm 5 mps 746 mmHg 78%
    01:00 +7°C° 0 mm 4 mps 747 mmHg 78%
    02:00 +6°C° 0 mm 4 mps 747 mmHg 79%
    03:00 +6°C° 0 mm 4 mps 747 mmHg 80%
    04:00 +5°C° 0 mm 3 mps 747 mmHg 81%
    05:00 +5°C° 0 mm 3 mps 748 mmHg 82%
    06:00 +6°C° 0 mm 2 mps 748 mmHg 83%
    07:00 +6°C° 0 mm 2 mps 748 mmHg 84%
    08:00 +7°C° 0 mm 3 mps 749 mmHg 76%
    09:00 +9°C° 0 mm 3 mps 749 mmHg 68%
    10:00 +10°C° 0 mm 4 mps 749 mmHg 60%
    11:00 +11°C° 0 mm 4 mps 749 mmHg 56%
    12:00 +12°C° 0 mm 4 mps 749 mmHg 52%
    13:00 +13°C° 0 mm 4 mps 748 mmHg 48%
    14:00 +12°C° 0 mm 4 mps 748 mmHg 50%
    15:00 +11°C° 0 mm 3 mps 748 mmHg 53%
    16:00 +11°C° 0 mm 3 mps 748 mmHg 55%
    17:00 +9°C° 0 mm 3 mps 749 mmHg 58%
    18:00 +8°C° 0 mm 3 mps 749 mmHg 61%
    19:00 +5°C° 0 mm 3 mps 750 mmHg 64%
    20:00 +6°C° 0 mm 2 mps 750 mmHg 66%
    21:00 +5°C° 0 mm 2 mps 751 mmHg 68%
    22:00 +5°C° 0 mm 2 mps 751 mmHg 69%
    23:00 +4°C° 0 mm 2 mps 751 mmHg 71%

    26 October, Thursday

    Time Temperature Precipitation Wind Pressure Humidity
    00:00 +4°C° 0 mm 2 mps 751 mmHg 72%
    01:00 +3°C° 0 mm 2 mps 752 mmHg 74%
    02:00 +3°C° 0 mm 2 mps 752 mmHg 75%
    03:00 +2°C° 0 mm 2 mps 752 mmHg 77%
    04:00 +2°C° 0 mm 2 mps 752 mmHg 78%
    05:00 +2°C° 0 mm 2 mps 752 mmHg 79%
    06:00 +2°C° 0 mm 2 mps 753 mmHg 80%
    07:00 +2°C° 0 mm 1 mps 753 mmHg 80%
    08:00 +3°C° 0 mm 2 mps 753 mmHg 72%
    09:00 +5°C° 0 mm 2 mps 753 mmHg 63%
    10:00 +7°C° 0 mm 2 mps 753 mmHg 55%
    11:00 +8°C° 0 mm 2 mps 753 mmHg 52%
    12:00 +9°C° 0 mm 2 mps 753 mmHg 49%
    13:00 +10°C° 0 mm 2 mps 753 mmHg 46%
    14:00 +10°C° 0 mm 2 mps 752 mmHg 50%
    15:00 +10°C° 0 mm 1 mps 752 mmHg 53%
    16:00 +10°C° 0 mm 1 mps 752 mmHg 57%
    17:00 +8°C° 0 mm 1 mps 753 mmHg 61%
    18:00 +7°C° 0 mm 1 mps 753 mmHg 64%
    19:00 +4°C° 0 mm 0 mps 753 mmHg 68%
    20:00 +4°C° 0 mm 0 mps 754 mmHg 69%
    21:00 +3°C° 0 mm 0 mps 754 mmHg 71%
    22:00 +3°C° 0 mm 0 mps 754 mmHg 72%
    23:00 +3°C° 0 mm 0 mps 754 mmHg 73%
    Show more